www.pogodaiklimat.ru

Погода и климат >> Архив погоды >> Россия >> Челябинская область >> Магнитогорск


АРХИВ ПОГОДЫ в Магнитогорске

Время (UTC), дата Ветер
(напр.,м/с)
 
Видим.   Явления Облачность Т
(С)
Тd
(С)
f
(%)
Тe
(С)
Тes
(С)
Комфортность P
(гПа)
Po
(гПа)
Тmin
(С)
Tmax
(С)
R
(мм)
R24
(мм)
S
(см)
06 12.02 штиль 0 20 км ясно -16.6 -19.0 82 -17 -14 по сезону 1034.8 983.5 -23.0
09 12.02 Ю 1 20 км 10/0
[Ci sp]
-13.5 -16.6 77 -16 -13 по сезону 1034.6 983.9
12 12.02 Ю 2 20 км 9/0
[Ci sp]
-12.0 -15.7 74 -17 -16 по сезону 1034.4 984.0
15 12.02 Ю 1 10 км 6/0
[Ac trans]
-13.5 -16.8 76 -16 -16 по сезону 1035.8 985.0 -10.9
18 12.02 Ю 1 10 км 9/0
[Ac trans]
-14.6 -17.6 78 -17 -17 по сезону 1036.4 985.4
21 12.02 штиль 0 10 км 3/0
[Ac trans]
-18.5 -21.1 80 -19 -19 по сезону 1037.5 985.6
00 13.02 штиль 0 10 км ясно -20.8 -23.4 80 -21 -21 по сезону 1037.8 985.5
03 13.02 штиль 0 10 км ясно -23.0 -25.9 77 -23 -23 по сезону 1038.8 986.0 -23.1 36
06 13.02 Ю 1 20 км ясно -18.9 -22.0 76 -22 -19 по сезону 1037.8 985.9 -23.9
09 13.02 Ю 2 20 км ясно -16.3 -20.2 72 -22 -18 прохладно 1037.4 985.9
12 13.02 Ю 1 20 км ясно -14.8 -19.4 68 -17 -17 по сезону 1036.4 985.3
15 13.02 штиль 0 10 км ясно -20.0 -22.4 81 -20 -20 по сезону 1037.0 984.9 -14.3
18 13.02 штиль 0 10 км ясно -19.7 -22.3 80 -20 -20 по сезону 1036.3 984.3
21 13.02 Ю 1 10 км 4/0
[Ac trans]
-21.3 -24.1 78 -24 -24 по сезону 1036.1 983.7
00 14.02 штиль 0 4000 м дымка 8/0
[Ac trans]
-22.6 -25.6 76 -23 -23 по сезону 1034.9 982.4
03 14.02 штиль 0 1000 м дымка 10/0
[Ac und]
-23.8 -27.0 75 -24 -24 по сезону 1034.5 981.7 -23.8 35
06 14.02 Ю 1 4000 м дымка 4/0
[Cc]
-20.6 -23.5 77 -24 -21 прохладно 1033.1 981.1 -24.0
09 14.02 Ю 1 20 км 3/0
[Ci fib]
-16.4 -19.5 77 -19 -15 по сезону 1031.0 979.9
12 14.02 В 1 20 км 3/0
[Ci fib]
-15.5 -19.2 73 -18 -18 по сезону 1028.4 977.6
15 14.02 штиль 0 10 км 8/0
[Cs]
-19.5 -22.1 80 -20 -20 по сезону 1028.2 976.6 -13.8
18 14.02 штиль 0 10 км 8/0
[Ac trans]
-18.1 -20.6 81 -18 -18 по сезону 1026.0 974.8
21 14.02 штиль 0 10 км 10/0
[As trans]
-17.2 -19.8 80 -17 -17 по сезону 1023.9 973.0
00 15.02 Ю 1 10 км {снег} 10/0
[Ac As]
-15.7 -18.2 81 -18 -18 по сезону 1022.0 971.5
03 15.02 ЮЗ 2 10 км ясно -17.7 -20.1 81 -23 -23 по сезону 1021.6 970.7 -19.5 0.3 35
06 15.02 Ю 2 20 км ясно -13.5 -15.6 84 -18 -16 по сезону 1020.2 970.2 -20.2
09 15.02 Ю 3 20 км ясно -4.3 -10.2 63 -9 -6 тепло 1017.6 969.4
12 15.02 Ю 3 20 км ясно -8.8 -12.8 73 -15 -14 по сезону 1016.9 967.9
15 15.02 ЮЗ 3 10 км 3/3 600 м
[Sc]
-8.2 -11.9 75 -14 -14 по сезону 1015.8 966.9 -3.6
18 15.02 ЮЗ 4 10 км 9/9 600 м
[Sc]
-7.9 -11.6 75 -15 -15 по сезону 1014.2 965.5
21 15.02 Ю 5 10 км 10/10 600 м
[Sc]
-8.7 -11.3 81 -16 -16 по сезону 1012.0 963.3
00 16.02 Ю 5
{10}
10 км 10/10
[Sc]
-8.8 -10.4 88 -17 -17 по сезону 1009.2 960.6
03 16.02 Ю 5
{10}
10 км {снег} 10/0
[Ac As]
-8.1 -10.6 82 -16 -16 по сезону 1006.5 958.1 -9.8 0.4 34
06 16.02 Ю 6-10
{11}
20 км позёмок {снег} 10/0
[Ac As]
-9.2 -11.2 85 -18 -17 по сезону 1006.2 957.6
09 16.02 Ю 5
{10}
20 км {метель} 8/0
[Ac trans]
-7.3 -10.5 78 -15 -14 по сезону 1004.9 956.7
12 16.02 ЮЗ 5 20 км {метель} 6/0
[Ac trans]
-6.7 -10.5 74 -14 -14 по сезону 1004.1 956.1
15 16.02 ЮЗ 4 10 км 9/0
[Ac trans]
-6.7 -9.9 78 -13 -13 по сезону 1004.0 956.0 -6.3
18 16.02 Ю 2 10 км 10/0
[Ac As]
-7.0 -10.0 79 -11 -11 тепло 1004.0 955.9
21 16.02 Ю 4 10 км 10/0
[Ac As]
-8.0 -10.3 83 -15 -15 по сезону 1004.1 955.8
00 17.02 Ю 1 10 км 10/0
[Ac As]
-8.4 -10.7 83 -11 -11 тепло 1003.4 955.1
03 17.02 ЮЗ 2 10 км 10/0
[Ac As]
-8.2 -10.5 83 -13 -13 тепло 1003.2 955.0 -10.1 34
06 17.02 Ю 2 20 км 3/3 600 м
[Sc]
-7.0 -10.8 74 -11 -9 тепло 1002.3 954.4
09 17.02 ЮЗ 3 20 км ясно -1.9 -7.6 65 -7 -3 тепло 1000.9 953.9
12 17.02 Ю 3 20 км ясно -4.2 -8.0 75 -9 -9 по сезону 999.8 952.5
15 17.02 Ю 2 10 км 3/3 600 м
[Sc]
-8.2 -11.4 78 -13 -13 по сезону 997.9 949.6 -1.8
18 17.02 З 4 10 км 9/0
[Ac trans]
-4.6 -7.0 83 -11 -11 тепло 997.3 950.0
21 17.02 Ю 3 10 км 10/0
[Ac As]
-5.3 -7.3 86 -11 -11 тепло 995.4 948.1
00 18.02 Ю 4 10 км 10/0
[Ac As]
-5.7 -7.2 89 -12 -12 тепло 993.6 946.3
03 18.02 Ю 6 4000 м слаб. снег 10/0
[Ac As]
-5.8 -7.3 89 -14 -14 по сезону 992.3 945.0 -9.5 0.0 33
06 18.02 Ю 7-10
{10}
4000 м слаб. снег {метель} 10/0 600 м
[As op]
-6.3 -8.2 86 -15 -15 по сезону 991.7 944.4
09 18.02 Ю 7-11
{11}
4000 м слаб. снег {метель} 10/0 600 м
[As op]
-6.3 -8.6 84 -15 -15 по сезону 991.6 944.3
12 18.02 ЮВ 9-11
{11}
4000 м слаб. снег {метель} 10/0 600 м
[As op]
-5.8 -7.5 88 -15 -15 по сезону 990.2 943.0
15 18.02 ЮВ 6
{11}
4000 м слаб. снег {метель} 10/0 600 м
[As op]
-6.7 -8.5 87 -15 -15 по сезону 990.6 943.2 -5.7 0.8
18 18.02 СВ 5 4000 м слаб. снег 10/0 600 м
[As op]
-7.6 -9.3 88 -15 -15 по сезону 990.1 942.6
21 18.02 СВ 8-11
{11}
4000 м слаб. снег {метель} 10/0 600 м
[As op]
-8.2 -9.9 88 -18 -18 по сезону 989.5 941.9
00 19.02 СВ 8-11
{12}
4000 м слаб. снег {метель} 10/0 600 м
[As op]
-8.3 -10.2 86 -18 -18 по сезону 989.1 941.5
03 19.02 СВ 8-12
{12}
4000 м слаб. снег {метель} 10/0 600 м
[As op]
-8.2 -10.0 87 -18 -18 по сезону 990.7 943.1 -8.6 1 35

 

Местоположение метеостанции Магнитогорск (Челябинская область, Россия): широта 53.35 долгота 59.08 высота над уровнем моря 384 м.

В архиве по умолчанию представлена погода в Магнитогорске за последнюю неделю. Архивные данные за месяц целиком и за предыдущие месяцы, начиная с января 2011 года, Вы можете получить, выбрав интересующий диапазон дат из раскрывающегося списка и нажав кнопку "Ввод!".


*Определитесь, кто Вы:
робот инопланетянин человек

Внимание! Время в таблицах - всемирное. Для получения местного времени необходимо прибавить поправку, которая равна 5 ч.

Смотрите также архив погоды в соседних городах и на ближайших метеорологических станциях:

Погода в Верхнеуральске (Челябинская область, Россия) (59 км)
Погода в Кизильском (Челябинская область, Россия) (71 км)
Погода в Белорецке (Башкирия, Россия) (81 км)
Погода в Карталы (Челябинская область, Россия) (111 км)
Погода в Тукане (Башкирия, Россия) (112 км)
Погода в Старосубхангулово (Башкирия, Россия) (113 км)
Погода в Учалах (Башкирия, Россия) (115 км)
Погода в Николаевке (Башкирия, Россия) (116 км)
Погода в Бредах (Челябинская область, Россия) (133 км)
Погода в Ревети (Башкирия, Россия) (133 км)

Пояснения к столбцам:

Ветер - указаны скорость ветра в м/с - средняя за 10 мин, порывы в срок и между сроками (в фигурных скобках) и направление, откуда дует ветер: С - северный, СВ - северо-восточный, В - восточный, ЮВ - юго-восточный, Ю - южный, ЮЗ - юго-западный, З - западный, СЗ - северо-западный.
Видимость - горизонтальная дальность видимости в метрах или километрах. При видимости от 1 до 10 км при отсутствии осадков обычно наблюдается дымка, при ухудшении видимости до 1 км и менее - туман. В сухую погоду видимость может ухудшаться дымом, пылью или мглою.
Явления - указаны атмосферные явления, наблюдавшиеся в срок или в последний час перед сроком; фигурными скобками обозначены явления, наблюдавшиеся между сроками (за 1-3 часа до срока); квадратными скобками обозначены град или гололедные отложения с указанием их диаметра в мм.
Облачность - указаны через наклонную черту общая и нижняя облачность в баллах и высота нижней границы облаков в метрах; квадратными скобками обозначены формы облаков: Ci - перистые, Cs - перисто-слоистые, Cc - перисто-кучевые, Ac - высококучевые, As - высокослоистые, Sc - слоисто-кучевые, Ns - слоисто-дождевые, Cu - кучевые, Cb - кучево-дождевые. Подробнее классификацию облаков см. в Атласе облаков (PDF).
T - Температура воздуха - температура, измеренная на высоте 2 м над землей.
Td - Температура точки росы - температура, при понижении до которой содержащийся в воздухе водяной пар достигнет насыщения.
f - Относительная влажность воздуха - влажноcть воздуха, измеренная на высоте 2 м над землей.
Te - Эффективная температура - температура, которую ощущает одетый по сезону человек в тени. Характеристика душности погоды. При расчете учитывается влияние влажности воздуха и скорости ветра на теплоощущения человека.
Tes - Эффективная температура на солнце - температура, которую ощущает человек, с поправкой на солнечный нагрев. Характеристика знойности погоды. Зависит от высоты солнца над горизонтом, облачности и скорости ветра. Ночью, в пасмурную погоду, а также при ветре 12 м/с и более поправка равна нулю.
P - Атмосферное давление - приведенное к уровню моря атмосферное давление.
Po - Атмосферное давление - измеренное на уровне метеостанции атмосферное давление.
Tmin - Минимальная температура - минимум температуры воздуха на высоте 2 м над землей.
Tmax - Максимальная температура - максимум температуры воздуха на высоте 2 м над землей.
R - Количество осадков - Количество выпавших осадков за период времени, мм. При наведении курсора мыши на число - период времени, за который выпало указанное количество осадков.
R24 - Количество осадков - Количество выпавших осадков за 24 часа, мм.
S - Снежный покров - Высота снежного покрова, см. При наведении курсора мыши на число - состояние снежного покрова и степень покрытия местности в баллах.